This is the latest recevied weather packets stored in our database for station/object KD2RHT-13. If no packets are shown the sender has not sent any weather packets the latest 10 day(s).
| Time | Temp. | Humidity | Pressure | Rain* | Wind** | Luminosity | Snow |
|---|---|---|---|---|---|---|---|
| 1777041815 | 11.67° C | 55% | 1015.2 hPa | 0 mm | - | 710 W/m² | - |
| 1777041512 | 11.67° C | 52% | 1015.2 hPa | 0 mm | - | 710 W/m² | - |
| 1777041208 | 12.22° C | 56% | 1015.2 hPa | 0 mm | - | 703 W/m² | - |
| 1777040905 | 11.11° C | 55% | 1015.2 hPa | 0 mm | - | 656 W/m² | - |
| 1777040600 | 11.11° C | 56% | 1015.2 hPa | 0 mm | - | 662 W/m² | - |
| 1777040295 | 11.11° C | 59% | 1015.9 hPa | 0 mm | - | 647 W/m² | - |
| 1777039990 | 10° C | 58% | 1015.6 hPa | 0 mm | - | 644 W/m² | - |
| 1777039686 | 9.44° C | 56% | 1015.9 hPa | 0 mm | - | 386 W/m² | - |
| 1777039381 | 10° C | 56% | 1015.9 hPa | 0 mm | - | 565 W/m² | - |
| 1777039076 | 9.44° C | 56% | 1015.9 hPa | 0 mm | - | 471 W/m² | - |
| 1777038772 | 8.89° C | 57% | 1015.9 hPa | 0 mm | - | 337 W/m² | - |
| 1777038468 | 8.89° C | 58% | 1015.9 hPa | 0 mm | - | 221 W/m² | - |
| 1777038162 | 8.89° C | 58% | 1015.9 hPa | 0 mm | - | 269 W/m² | - |
| 1777037858 | 8.89° C | 61% | 1015.9 hPa | 0 mm | - | 240 W/m² | - |
| 1777037554 | 8.89° C | 60% | 1015.9 hPa | 0 mm | - | 348 W/m² | - |
| 1777037251 | 8.33° C | 62% | 1015.9 hPa | 0 mm | - | 422 W/m² | - |
| 1777036947 | 7.78° C | 64% | 1016.2 hPa | 0 mm | - | 174 W/m² | - |
| 1777036645 | 7.78° C | 65% | 1015.9 hPa | 0 mm | - | 110 W/m² | - |
| 1777036345 | 7.78° C | 68% | 1015.9 hPa | 0 mm | - | 96 W/m² | - |
| 1777036041 | 7.22° C | 64% | 1016.2 hPa | 0 mm | - | 82 W/m² | - |
| 1777035740 | 7.22° C | 64% | 1016.2 hPa | 0 mm | - | 85 W/m² | - |
| 1777035437 | 7.22° C | 64% | 1016.2 hPa | 0 mm | - | 77 W/m² | - |
| 1777035137 | 7.22° C | 64% | 1016.2 hPa | 0 mm | - | 72 W/m² | - |
| 1777034835 | 7.22° C | 66% | 1015.9 hPa | 0 mm | - | 70 W/m² | - |
| 1777034532 | 7.22° C | 65% | 1015.9 hPa | 0 mm | - | 73 W/m² | - |
* Rain latest hour (hover to see other rain measurements)
** Current wind speed in m/s (hover to see current wind gust speed)